Regional Weather Roundup
Issued by NWS Green Bay, WI

Home | Current Version | Previous Version | Graphics & Text | Print | Product List | Glossary Off
Versions: 1 2 3 4 5 6 7 8 9 10 11 12 13 14 15 16 17 18 19 20 21 22 23 24 25 26 27 28 29 30 31 32 33 34 35 36 37 38 39 40 41 42 43 44 45 46 47 48 49 50

000
ASUS43 KGRB 230611
RWRGRB

NORTH-CENTRAL AND NORTHEAST WISCONSIN REGIONAL WEATHER ROUNDUP
NATIONAL WEATHER SERVICE GREEN BAY WI
100 AM CDT SAT SEP 23 2017

WIZ005-009-010>012-018-019-230700-
NORTH CENTRAL WISCONSIN

CITY           SKY/WX    TMP DP  RH WIND       PRES   REMARKS
IRONWOOD       CLEAR     78  67  68 SW16G28   29.87R
MANITOWISH WTR NOT AVBL
ARBOR VITAE    CLEAR     72  66  82 SW8G18    29.96R
EAGLE RIVER    CLEAR     69  66  89 SW3       29.96R
LAND O LAKES   CLEAR     70  65  85 SW5       29.97R
RHINELANDER    CLEAR     73  66  78 SW9       29.97S
PHILLIPS       MOCLDY    74  68  80 S9        29.93S
ANTIGO         CLEAR     68  65  89 S7        29.99F
TOMAHAWK       CLEAR     69  64  82 CALM      29.97S
MERRILL        CLEAR     75  66  74 SW3       29.97S
$$

WIZ013-073-230700-
NORTHEAST WISCONSIN

CITY           SKY/WX    TMP DP  RH WIND       PRES   REMARKS
IRON MOUNTAIN  CLEAR     65  63  93 CALM      29.95S FOG
MARINETTE      CLEAR     71  66  84 SW6       29.97S
OCONTO         CLEAR     70  66  88 CALM      29.97R
$$

WIZ017-030-035>037-045-230700-
CENTRAL WISCONSIN

CITY           SKY/WX    TMP DP  RH WIND       PRES   REMARKS
MEDFORD        CLEAR     67  64  90 S7        29.96S
WAUSAU         CLEAR     75  65  70 S7        29.95F
MOSINEE        CLEAR     70  64  83 S7        29.99R
MARSHFIELD     CLEAR     71  64  78 S7        29.96S
WISC RAPIDS    CLEAR     76  65  68 S8        29.98S
STEVENS POINT  CLEAR     72  64  75 S7        29.98S
WAUPACA        CLEAR     70  67  89 CALM      29.99S
SHAWANO        CLEAR     73  68  84 S5        29.97S
CLINTONVILLE   CLEAR     68  64  88 S3        29.98S
WAUTOMA        CLEAR     70  66  87 CALM      29.99S
$$

WIZ038-039-048-051-230700-
FOX VALLEY

CITY           SKY/WX    TMP DP  RH WIND       PRES   REMARKS
NWS GREEN BAY  CLEAR     73  68  84 S8        29.98F
APPLETON       CLEAR     72  61  68 S7        29.99S
OSHKOSH        CLEAR     69  64  84 S8        30.00R
FOND DU LAC    CLEAR     71  64  78 S7        30.01S
$$

WIZ022-050-052-230700-
EAST CENTRAL WISCONSIN

CITY           SKY/WX    TMP DP  RH WIND       PRES   REMARKS
EPHRAIM        FAIR      70  65  84 S7        29.96F
WASHINGTON ISL FAIR      69  65  87 S8        29.95F
STURGEON BAY   CLEAR     71  66  84 S10       29.98F
MANITOWOC      CLEAR     71  66  84 S8        30.01S
SHEBOYGAN      CLEAR     65  65 100 CALM      30.01F FOG
$$

LMZ563-521-522-541>543-230700-
LAKESHORE

STATION/POSITION TIME  TEMP    WIND        PRES    VSBY  WAVE
                       AIR SEA DIR/SP/G                  HT/PER
                 (UTC) (F)     (DEG/KT/KT) (MB)    (MI)  (FT/S)
SHEBOYGAN LKSHOR 0600   72     190/  7/  7 1015.8F
KEWAUNEE LKSHORE 0548   64     230/  2/  5 1014.8F
NORTHPORT PIER   0540   71     170/  5/ 12 1014.2F
N MID LAKE BUOY  0550   68 66  160/  8/ 10 1015.6F         2/ 4
S GREEN BAY BUOY 0600   71 67  190/ 14/ 14 1014.5
SISTER BAY LKSHO 0604   72     160/ 12/ 15   N/A
MENOMINEE LKSHOR 0548   72     170/  9/ 12 1014.0F
$$




USA.gov is the U.S. government's official web portal to all federal, state and local government web resources and services.